Location: Maddington
(51.2000°N, 1.9167°W)
Time: 15:54:39
(UTC+00:00)

Cosmos 1125 Rocket - Pass Details

Date: 21 June 2021
Orbit: 757 x 780 km, 74.0° (Epoch: 28 July)

Event Time Altitude Azimuth Distance (km) Brightness Sun altitude
Rises 23:48:20 0° 340° (NNW) 3,243 8.3 -15.2°
Reaches altitude 10° 23:51:51 10° 4° (N) 2,318 7.3 -15.3°
Maximum altitude 23:54:44 15° 38° (NE) 2,013 6.3 -15.3°
Drops below altitude 10° 23:57:37 10° 72° (ENE) 2,321 6.2 -15.3°
Sets 00:01:08 0° 96° (E) 3,249 6.7 -15.3°
